This is the latest recevied weather packets stored in our database for station/object DL9BGG-13. If no packets are shown the sender has not sent any weather packets the latest 1 day(s).
| Time | Temp. | Humidity | Pressure | Rain* | Wind** | Luminosity | Snow |
|---|---|---|---|---|---|---|---|
| 1778027881 | 9.44° C | 89% | 1055.1 hPa | 0 mm | 2.24 m/s, 45° | - | - |
| 1778027813 | 9.44° C | 89% | 1055.2 hPa | 0 mm | 1.34 m/s, 45° | - | - |
| 1778027738 | 9.44° C | 89% | 1055.1 hPa | 0 mm | 1.34 m/s, 45° | - | - |
| 1778027665 | 9.44° C | 89% | 1055.2 hPa | 0 mm | 0 m/s | - | - |
| 1778027599 | 9.44° C | 89% | 1055.2 hPa | 0 mm | 1.79 m/s, 45° | - | - |
| 1778027525 | 9.44° C | 89% | 1055.2 hPa | 0 mm | 1.34 m/s, 67° | - | - |
| 1778027458 | 9.44° C | 89% | 1055.2 hPa | 0 mm | 2.24 m/s, 67° | - | - |
| 1778027393 | 9.44° C | 89% | 1055.2 hPa | 0 mm | 2.24 m/s, 45° | - | - |
| 1778027327 | 9.44° C | 89% | 1055.2 hPa | 0 mm | 0 m/s | - | - |
| 1778027260 | 9.44° C | 89% | 1055.2 hPa | 0 mm | 2.24 m/s, 22° | - | - |
| 1778027194 | 9.44° C | 89% | 1055.2 hPa | 0 mm | 2.24 m/s, 90° | - | - |
| 1778027115 | 9.44° C | 89% | 1055.2 hPa | 0 mm | 3.13 m/s, 45° | - | - |
| 1778027049 | 10° C | 89% | 1055.2 hPa | 0 mm | 1.34 m/s, 45° | - | - |
| 1778026984 | 10° C | 88% | 1055.2 hPa | 0 mm | 4.02 m/s, 45° | - | - |
| 1778026915 | 10° C | 88% | 1055.2 hPa | 0 mm | 3.13 m/s, 45° | - | - |
| 1778026844 | 10° C | 88% | 1055.2 hPa | 0 mm | 2.24 m/s, 22° | - | - |
| 1778026776 | 10° C | 88% | 1055.2 hPa | 0 mm | 2.68 m/s, 22° | - | - |
| 1778026697 | 10° C | 88% | 1055.2 hPa | 0 mm | 2.24 m/s, 22° | - | - |
| 1778026615 | 10° C | 88% | 1055.2 hPa | 0 mm | 3.58 m/s, 22° | - | - |
| 1778026475 | 10° C | 88% | 1055.2 hPa | 0 mm | 4.02 m/s, 67° | - | - |
| 1778026409 | 10° C | 88% | 1055.2 hPa | 0 mm | 1.79 m/s, 22° | - | - |
| 1778026338 | 10° C | 88% | 1055.2 hPa | 0 mm | 3.58 m/s, 45° | - | - |
| 1778026272 | 10° C | 88% | 1055.3 hPa | 0 mm | 2.68 m/s, 22° | - | - |
| 1778026191 | 10° C | 88% | 1055.4 hPa | 0 mm | 2.68 m/s, 0° | - | - |
| 1778026116 | 10° C | 88% | 1055.3 hPa | 0 mm | 4.47 m/s, 22° | - | - |
* Rain latest hour (hover to see other rain measurements)
** Current wind speed in m/s (hover to see current wind gust speed)